This demonstration page uses our WeatherBlox Daily Observations layout. Learn more.

Left ArrowRight Arrow

Hourly Observations for January 14, 2016

Temp ( °F °C ) Dew Point ( °F °C ) Humidity (%) Winds ( mph kmh ) Pressure ( in mb ) Visibility ( mi km ) Precip ( " mm )
12:51 am 00:51 Clear 32 undefined 28 -2.2 85 85 N N/A 30.03 1017 10 16 N/A
1:51 am 01:51 Clear 29 -1.7 26 -3.3 89 89 SE 3 6 30.02 1017 10 16 N/A
2:51 am 02:51 Clear 30 -1.1 27 -2.8 88 88 E 6 9 30.00 1016 10 16 N/A
3:51 am 03:51 Clear 29 -1.7 26 -3.3 89 89 N N/A 30.01 1016 10 16 N/A
4:51 am 04:51 Clear 28 -2.2 25 -3.9 88 88 SE 5 7 30.01 1016 10 16 N/A
5:51 am 05:51 Clear 28 -2.2 25 -3.9 88 88 N N/A 30.04 1017 10 16 N/A
6:51 am 06:51 Clear 26 -3.3 23 -5 88 88 SE 7 11 30.06 1018 10 16 N/A
7:51 am 07:51 Sunny 29 -1.7 24 -4.4 82 82 N N/A 30.08 1019 10 16 N/A
8:51 am 08:51 Sunny 32 undefined 26 -3.3 79 79 SE 6 9 30.08 1019 10 16 N/A
9:51 am 09:51 Sunny 38 3.3 26 -3.3 62 62 N N/A 30.09 1019 10 16 N/A
10:51 am 10:51 Sunny 43 6.1 26 -3.3 51 51 N N/A 30.07 1018 10 16 N/A
11:51 am 11:51 Sunny 48 8.9 28 -2.2 46 46 W 5 7 30.03 1017 10 16 N/A
12:51 pm 12:51 Sunny 51 10.6 29 -1.7 43 43 W 7 11 29.98 1015 10 16 N/A
1:51 pm 13:51 Sunny 54 12.2 30 -1.1 40 40 WNW 9 15 29.95 1014 10 16 N/A
2:51 pm 14:51 Sunny 58 14.4 28 -2.2 32 32 W 10 17 29.93 1013 N/A N/A
3:51 pm 15:51 Hazy 60 15.6 17 -8.3 19 19 NW 15 24 29.92 1013 2 3 N/A
4:06 pm 16:06 Sunny 60 15.6 17 -8.3 19 19 NW 10 17 29.88 1012 10 16 N/A
4:51 pm 16:51 Sunny 59 15 19 -7.2 21 21 NW 9 15 29.92 1013 10 16 N/A
5:51 pm 17:51 Clear 51 10.6 21 -6.1 31 31 NW 9 15 29.94 1014 10 16 N/A
6:51 pm 18:51 Clear 48 8.9 22 -5.6 36 36 NNW 12 19 29.97 1015 10 16 N/A
7:17 pm 19:17 Hazy 51 10.6 21 -6.1 31 31 NNW 14 22 29.94 1014 3 4 N/A
7:25 pm 19:25 Clear 51 10.6 20 -6.7 29 29 NNW 14 22 29.94 1014 10 16 N/A
7:51 pm 19:51 Clear 49 9.4 20 -6.7 32 32 WNW 10 17 29.97 1015 10 16 N/A
8:51 pm 20:51 Clear 45 7.2 23 -5 42 42 NNW 10 17 29.97 1015 10 16 N/A
9:51 pm 21:51 Clear 42 5.6 23 -5 47 47 NW 6 9 29.98 1015 10 16 N/A
10:51 pm 22:51 Clear 40 4.4 23 -5 51 51 N 10 17 29.97 1015 10 16 N/A
11:51 pm 23:51 Clear 37 2.8 25 -3.9 62 62 SE 5 7 29.97 1015 10 16 N/A

Powered by AerisWeather